CAPE
0 0 0 0 0 0 0 0 0 0 0 0 0 0 0 0 0 0 0 0 0 0 0 0 0 0 0 0 0 0 0 0 0 0 0 0 0 0 0 0 0 0 0 0 0
0 0 0 0 0 0 0 0 0 0 0 0 0 0 0 0 0 0 0 0 0 0 0 0 0 0 0 0 0 0 0 0 0 0 0 0 0 0 0 0 0 0 0 0 0
0 0 0 0 0 0 0 0 0 0 0 0 0 0 0 0 0 0 0 0 0 0 0 0 0 0 0 0 0 0 0 0 0 0 0 0 0 0 0 0 0 0 0 0 0
0 0 0 0 0 0 0 0 0 0 0 0 0 0 0 0 0 0 0 0 0 0 0 0 0 0 0 0 0 0 0 0 0 0 0 0 0 0 0 0 0 0 0 0 0
0 0 0 0 0 0 0 0 0 0 0 0 0 0 0 0 0 0 0 0 0 0 0 0 0 0 0 0 0 0 0 0 0 0 0 0 0 0 0 0 0 0 0 0 0
0 0 0 0 0 0 0 0 0 0 0 0 0 0 0 0 0 0 0 0 0 0 0 0 0 0 0 0 0 0 0 0 0 0 0 0 0 0 0 0 0 0 0 0 0
0 0 0 0 0 0 0 0 0 0 0 0 0 0 0 0 0 0 0 0 0 0 0 0 0 0 0 0 0 0 0 0 0 0 0 0 0 0 0 0 0 0 0 0 0
0 0 0 0 0 0 0 0 0 0 0 0 0 0 0 0 0 0 0 0 0 0 0 0 0 0 0 0 0 0 0 0 0 0 0 0 0 0 0 0 0 0 0 0 0
0 0 0 0 0 0 0 0 0 0 0 0 0 0 0 0 0 0 0 0 0 0 0 0 0 0 0 0 0 0 0 0 0 0 0 0 0 0 0 0 0 0 0 0 0
0 0 0 0 0 0 0 0 0 0 0 0 0 0 0 0 0 0 0 0 0 0 0 0 0 0 0 0 0 0 0 0 0 0 0 0 0 0 0 0 0 0 0 0 0
0 0 0 0 0 0 0 0 0 0 0 0 0 0 0 0 0 0 0 0 0 0 0 0 0 0 0 0 0 0 0 0 0 0 0 0 0 0 0 0 0 0 0 0 0
0 0 0 0 0 0 0 0 0 0 0 0 0 0 0 0 0 0 0 0 0 0 0 0 0 0 0 0 0 0 0 0 0 0 0 0 0 0 0 0 0 0 0 0 0
0 0 0 0 0 0 0 0 0 0 0 0 0 0 0 0 0 0 0 0 0 0 0 0 0 0 0 0 0 0 0 0 0 0 0 0 0 0 0 0 0 0 0 0 0
0 0 0 0 0 0 0 0 0 0 0 0 0 0 0 0 0 0 0 0 0 0 0 0 0 0 0 0 0 0 0 0 0 0 0 0 0 0 0 0 0 0 0 0 0
0 0 0 0 0 0 0 0 0 0 0 0 0 0 0 0 0 0 0 0 0 0 0 0 0 0 0 0 0 0 0 0 0 0 0 0 0 0 0 0 0 0 0 0 0
0 0 0 0 0 0 0 0 0 0 0 0 0 0 0 0 0 0 0 0 0 0 0 0 0 0 0 0 0 0 0 0 0 0 0 0 0 0 0 0 0 0 0 0 0
1 0 1 0 0 0 0 0 0 0 0 0 0 0 0 0 0 0 0 0 0 0 0 0 0 0 0 0 0 0 0 0 0 0 0 0 0 0 0 0 0 0 0 0 0
0 0 0 0 0 0 0 0 3 0 0 0 0 0 0 0 0 0 0 0 0 0 0 0 0 0 0 0 0 0 0 0 0 0 0 0 0 0 0 0 0 0 0 0 0
0 1 0 0 0 0 0 4 0 0 0 0 0 1 0 0 0 0 0 0 0 0 0 0 0 0 0 0 0 0 0 0 0 0 0 0 0 0 0 0 0 0 0 0 0
0 1 0 0 0 0 0 1 0 2 0 0 4 0 0 0 0 0 0 0 0 0 0 0 0 0 0 0 0 0 0 0 0 0 0 0 0 0 0 0 0 0 0 0 0
1 3 0 0 0 0 0 0 0 0 0 0 0 1 0 0 2 1 0 0 0 0 0 0 0 0 0 0 0 0 0 0 0 0 0 0 0 0 0 0 0 0 0 0 0
9 0 0 0 0 0 0 0 0 0 0 0 0 0 0 0 0 0 0 0 0 0 0 0 0 0 0 0 0 0 0 0 0 0 0 0 0 0 0 0 0 0 0 0 0
10 8 0 0 0 1 13 1 0 0 0 0 0 0 0 0 0 0 0 0 0 0 0 0 0 0 0 0 0 0 0 0 0 0 0 0 0 0 0 0 0 0 0 0 0
27 1 10 0 0 0 6 8 0 0 0 0 0 0 0 0 0 0 0 0 0 0 0 0 1 0 0 0 0 0 0 0 0 0 0 0 0 0 0 0 0 0 0 0 0
42 3 9 0 8 4 3 7 1 1 0 1 0 0 0 0 0 0 0 0 0 0 0 0 0 0 0 0 0 0 0 0 0 0 0 0 0 0 0 0 0 0 0 0 0
17 30 24 33 22 27 37 25 15 8 24 6 0 0 12 0 4 10 0 1 0 0 0 0 0 0 0 0 0 0 0 0 0 0 0 0 0 0 0 0 0 0 0 0 0
16 15 25 9 11 14 3 8 7 18 7 5 10 8 0 0 0 0 0 0 1 0 0 0 0 0 0 0 0 0 0 0 0 0 0 0 0 0 0 0 0 0 0 0 0
CIN
0 0 0 0 0 0 0 0 0 0 0 0 0 0 0 0 0 0 0 0 0 0 0 0 0 0 0 0 0 0 0 0 0 0 0 0 0 0 0 0 0 0 0 0 0
0 0 0 0 0 0 0 0 0 0 0 0 0 0 0 0 0 0 0 0 0 0 0 0 0 0 0 0 0 0 0 0 0 0 0 0 0 0 0 0 0 0 0 0 0
0 0 0 0 0 0 0 0 0 0 0 0 0 0 0 0 0 0 0 0 0 0 0 0 0 0 0 0 0 0 0 0 0 0 0 0 0 0 0 0 0 0 0 0 0
0 0 0 0 0 0 0 0 0 0 0 0 0 0 0 0 0 0 0 0 0 0 0 0 0 0 0 0 0 0 0 0 0 0 0 0 0 0 0 0 0 0 0 0 0
0 0 0 0 0 0 0 0 0 0 0 0 0 0 0 0 0 0 0 0 0 0 0 0 0 0 0 0 0 0 0 0 0 0 0 0 0 0 0 0 0 0 0 0 0
0 0 0 0 0 0 0 0 0 0 0 0 0 0 0 0 0 0 0 0 0 0 0 0 0 0 0 0 0 0 0 0 0 0 0 0 0 0 0 0 0 0 0 0 0
0 0 0 0 0 0 0 0 0 0 0 0 0 0 0 0 0 0 0 0 0 0 0 0 0 0 0 0 0 0 0 0 0 0 0 0 0 0 0 0 0 0 0 0 0
0 0 0 0 0 0 0 0 0 0 0 0 0 0 0 0 0 0 0 0 0 0 0 0 0 0 0 0 0 0 0 0 0 0 0 0 0 0 0 0 0 0 0 0 0
0 0 0 0 0 0 0 0 0 0 0 0 0 0 0 0 0 0 0 0 0 0 0 0 0 0 0 0 0 0 0 0 0 0 0 0 0 0 0 0 0 0 0 0 0
0 0 0 0 0 0 0 0 0 0 0 0 0 0 0 0 0 0 0 0 0 0 0 0 0 0 0 0 0 0 0 0 0 0 0 0 0 0 0 0 0 0 0 0 0
0 0 0 0 0 0 0 0 0 0 0 0 0 0 0 0 0 0 0 0 0 0 0 0 0 0 0 0 0 0 0 0 0 0 0 0 0 0 0 0 0 0 0 0 0
0 0 0 0 0 0 0 0 0 0 0 0 0 0 0 0 0 0 0 0 0 0 0 0 0 0 0 0 0 0 0 0 0 0 0 0 0 0 0 0 0 0 0 0 0
0 0 0 0 0 0 0 0 0 0 0 0 0 0 0 0 0 0 0 0 0 0 0 0 0 0 0 0 0 0 0 0 0 0 0 0 0 0 0 0 0 0 0 0 0
0 0 0 0 0 0 0 0 0 0 0 0 0 0 0 0 0 0 0 0 0 0 0 0 0 0 0 0 0 0 0 0 0 0 0 0 0 0 0 0 0 0 0 0 0
0 0 0 0 0 0 0 0 0 0 0 0 0 0 0 0 0 0 0 0 0 0 0 0 0 0 0 0 0 0 0 0 0 0 0 0 0 0 0 0 0 0 0 0 0
0 0 0 0 0 0 0 0 0 0 0 0 0 0 0 0 0 0 0 0 0 0 0 0 0 0 0 0 0 0 0 0 0 0 0 0 0 0 0 0 0 0 0 0 0
0 0 0 0 0 0 0 0 0 0 0 0 0 0 0 0 0 0 0 0 0 0 0 0 0 0 0 0 0 0 0 0 0 0 0 0 0 0 0 0 0 0 0 0 0
0 0 0 0 0 0 0 0 0 0 0 0 0 0 0 0 0 0 0 0 0 0 0 0 0 0 0 0 0 0 0 0 0 0 0 0 0 0 0 0 0 0 0 0 0
0 -1 0 0 0 0 0 0 0 0 0 0 0 0 0 0 0 0 0 0 0 0 0 0 0 0 0 0 0 0 0 0 0 0 0 0 0 0 0 0 0 0 0 0 0
0 -1 0 0 0 0 0 -1 0 -1 0 0 -1 0 0 0 0 0 0 0 0 0 0 0 0 0 0 0 0 0 0 0 0 0 0 0 0 0 0 0 0 0 0 0 0
0 0 0 0 0 0 0 0 0 -1 0 0 0 0 0 -1 0 0 0 0 0 0 0 0 0 0 0 0 0 0 0 0 0 0 0 0 0 0 0 0 0 0 0 0 0
0 0 0 0 0 0 0 0 0 0 0 0 0 0 -1 0 0 0 0 0 0 0 0 0 0 0 0 0 0 0 0 0 0 0 0 0 0 0 0 0 0 0 0 0 0
0 -1 0 0 0 0 -2 -2 0 0 0 0 0 0 0 0 0 0 0 0 0 0 0 0 0 0 0 0 0 0 0 0 0 0 0 0 0 0 0 0 0 0 0 0 0
0 -1 -3 0 0 0 -1 -1 -1 0 0 0 0 0 0 0 0 0 0 0 0 0 0 0 0 0 0 0 0 0 0 0 0 0 0 0 0 0 0 0 0 0 0 0 0
-1 -1 -3 0 -1 -2 -19 -4 -4 0 0 0 0 0 0 0 0 0 0 0 0 0 0 0 0 0 0 0 0 0 0 0 0 0 0 0 0 0 0 0 0 0 0 0 0
0 0 -3 0 0 -1 0 -1 0 -1 -1 -10 0 0 -1 0 0 -1 -1 -1 0 0 0 0 0 0 0 0 0 0 0 0 0 0 0 0 0 0 0 0 0 0 0 0 0
-2 -11 -1 0 -2 -1 -1 -2 -2 -1 -2 -1 -2 -2 0 0 0 0 0 0 0 0 0 0 0 0 0 0 0 0 0 0 0 0 0 0 0 0 0 0 0 0 0 0 0
Wind_Speed
29 27 26 25 25 26 28 27 24 20 19 21 25 26 27 27 22 21 20 22 23 29 27 23 17 15 15 15 16 16 11 13 13 15 15 9 10 13 16 12 11 14 16 11 6
29 28 27 27 27 28 28 28 25 22 22 25 26 27 29 26 21 21 22 26 26 26 20 17 14 14 13 15 15 14 14 19 20 20 17 10 11 10 11 10 13 10 11 9 7
30 30 29 29 29 29 28 27 26 25 25 26 26 28 28 22 23 17 25 26 25 23 15 15 14 13 12 14 15 16 17 21 21 20 16 12 12 11 12 11 11 8 6 6 7
31 31 31 30 30 30 28 26 22 25 26 26 26 28 28 19 23 20 28 26 24 19 13 12 10 12 13 13 15 16 18 20 18 18 16 13 12 15 11 18 15 9 5 6 7
31 31 30 31 32 32 29 26 25 26 28 27 27 28 24 21 22 24 28 24 19 16 12 10 10 12 13 13 14 15 16 17 16 16 15 14 14 16 14 17 12 6 6 7 8
35 34 34 34 34 34 32 25 23 25 26 28 27 27 22 24 20 26 25 21 21 17 15 14 15 14 14 15 15 16 14 15 14 15 15 16 16 16 13 10 9 9 9 9 9
37 37 37 37 37 35 34 30 20 16 15 23 23 20 22 25 21 26 24 20 19 18 17 17 17 14 14 17 15 14 19 18 15 14 18 16 17 15 11 7 8 9 10 11 10
38 38 39 39 39 36 35 35 27 15 15 17 19 18 22 18 19 23 24 17 19 17 16 17 15 14 17 15 18 19 21 25 16 15 19 16 24 12 7 8 10 11 11 11 11
38 39 39 39 38 36 38 33 26 19 16 15 17 18 19 16 18 22 22 20 20 17 16 15 16 16 15 18 22 19 27 22 24 16 22 18 25 16 10 10 11 11 12 13 13
39 40 41 41 40 38 39 27 24 20 19 19 18 20 19 22 21 21 20 18 17 18 18 18 18 18 18 18 27 29 28 27 28 22 23 25 25 23 15 14 14 13 13 13 13
39 40 41 42 40 39 37 27 30 24 28 25 25 24 23 22 17 19 19 16 15 17 21 19 22 24 25 23 29 30 32 34 30 26 28 29 31 28 22 20 18 17 15 15 14
40 41 42 43 38 37 32 31 29 28 36 26 24 22 20 20 20 18 18 16 16 19 19 23 28 24 25 27 29 30 33 35 30 27 31 36 35 32 25 23 20 19 17 16 14
41 42 43 45 33 32 32 31 26 27 34 29 23 22 20 19 21 19 20 19 19 23 23 28 29 25 27 27 30 30 32 34 35 34 33 40 46 30 23 20 18 17 16 14 13
41 42 42 45 29 35 31 29 26 27 37 29 23 20 19 19 21 19 20 21 23 27 26 28 26 27 28 29 26 33 30 32 33 34 39 28 51 36 27 23 19 16 14 14 13
39 40 40 34 34 34 32 28 25 27 40 27 23 17 19 23 25 22 20 22 28 29 27 30 27 26 28 28 23 31 27 30 30 33 40 33 37 39 27 28 20 18 17 15 13
39 39 39 30 30 27 29 26 26 29 29 23 20 21 24 22 24 25 27 24 26 27 26 29 25 27 29 27 27 26 30 31 31 33 44 36 32 42 29 28 25 21 17 15 14
38 36 35 28 30 25 25 26 30 27 25 25 23 25 30 32 30 28 27 24 27 33 33 29 29 28 26 30 26 27 31 38 39 36 41 30 32 37 32 28 26 20 16 13 12
37 37 28 25 24 23 22 28 32 30 28 29 32 34 36 32 28 25 27 31 24 26 32 33 35 23 18 24 28 26 30 32 40 41 44 32 40 41 29 25 23 21 13 11 11
40 31 27 24 23 20 24 29 34 35 32 32 37 39 34 29 28 31 31 32 24 19 30 34 34 26 25 26 26 29 32 27 37 41 45 39 38 36 31 28 23 20 14 12 12
38 36 30 23 20 20 28 32 33 34 33 34 38 31 38 36 34 32 32 27 28 23 23 31 41 31 28 26 25 27 27 34 31 42 46 43 47 42 35 28 21 19 16 15 12
34 38 28 22 21 24 31 35 36 33 31 32 32 39 38 38 36 37 33 31 29 27 24 30 35 38 32 31 32 30 33 31 31 34 43 50 45 29 30 25 22 21 18 15 14
33 37 24 21 34 32 36 34 32 34 27 32 35 37 36 35 39 35 37 32 26 24 33 29 36 42 41 33 30 32 32 26 35 38 36 39 51 28 29 29 23 20 18 16 14
35 36 26 23 36 35 34 37 33 35 36 35 37 31 30 32 37 34 35 30 25 27 31 29 35 46 40 36 31 34 32 31 33 37 42 44 50 28 28 26 22 20 18 16 16
33 37 30 27 30 36 38 41 40 32 32 29 31 29 33 37 33 38 38 33 28 29 26 28 37 40 49 49 41 44 41 33 33 44 46 47 49 37 35 29 25 23 20 18 17
30 35 35 37 35 34 34 37 40 42 34 30 35 33 38 44 40 42 41 38 35 32 30 32 47 45 49 49 49 51 49 41 41 43 47 53 43 41 35 29 29 25 20 18 18
34 36 34 40 41 42 40 41 45 44 38 39 40 42 37 42 44 46 45 46 44 32 33 33 48 46 55 48 49 54 49 44 45 46 45 46 50 43 39 32 28 25 22 18 18
30 30 36 41 44 44 42 44 44 41 39 39 40 42 47 43 32 37 37 38 37 37 36 37 43 47 63 45 48 58 48 42 41 38 38 46 42 38 34 32 23 20 20 21 19
Wind_Direction
343 336 328 321 321 325 332 345 350 351 349 339 325 309 312 318 341 344 340 328 322 299 301 315 332 336 333 332 328 324 335 331 328 327 327 336 330 324 313 326 325 319 319 334 348
342 338 333 329 327 329 333 341 356 353 341 326 316 310 315 330 339 340 338 317 312 311 326 338 346 340 340 336 333 329 325 324 322 323 324 325 322 322 323 319 317 319 320 325 330
342 340 334 331 335 343 350 353 351 341 330 321 322 321 328 345 337 348 330 318 317 322 340 337 344 348 345 340 333 328 319 321 321 322 325 325 318 320 313 306 303 295 296 308 315
337 335 335 332 330 340 353 0 5 350 337 334 331 329 334 351 338 345 323 319 325 336 353 354 358 347 339 333 333 324 321 320 323 325 324 319 322 315 303 312 315 304 292 301 305
336 332 327 325 328 335 348 355 355 348 340 338 334 331 341 338 334 342 330 333 340 343 348 349 341 337 331 334 333 323 324 324 323 324 321 321 313 313 306 311 315 310 295 294 301
344 339 334 330 327 326 337 353 357 347 342 337 337 336 337 329 349 337 336 341 336 340 339 337 333 332 331 328 324 331 329 327 325 321 319 314 313 314 308 312 308 301 295 295 299
344 343 340 336 335 334 335 343 356 359 359 351 350 352 337 328 346 341 340 345 340 338 334 334 331 331 338 329 333 333 324 323 315 313 316 318 306 293 306 295 295 292 293 295 296
344 340 339 341 340 338 341 333 340 357 359 356 358 357 339 356 354 345 341 346 344 341 342 336 340 336 330 338 331 323 321 316 322 315 315 313 311 315 310 292 291 288 289 289 289
340 336 334 332 328 335 338 345 356 6 8 10 360 353 345 6 351 345 345 338 336 340 340 339 336 328 330 321 319 317 313 313 317 311 311 300 310 317 310 297 292 285 286 287 288
341 338 334 334 335 337 331 357 1 11 10 3 1 348 347 338 341 342 344 340 337 334 331 327 324 318 316 312 312 315 312 313 310 315 304 300 294 306 301 293 289 285 279 277 278
334 333 333 335 334 340 345 355 346 349 347 340 335 331 333 338 346 340 342 340 337 328 319 325 314 309 312 306 307 308 306 306 309 312 306 298 295 297 293 288 286 282 276 275 275
332 331 328 330 339 346 354 348 347 341 331 336 334 334 339 343 338 345 348 336 331 319 321 315 306 313 314 311 308 307 306 306 309 312 307 304 299 298 288 279 278 279 275 274 275
331 331 332 330 344 351 351 350 353 348 329 330 335 334 339 345 336 338 343 337 327 317 313 307 313 316 312 311 308 306 304 306 307 311 303 304 303 305 301 280 286 280 276 269 265
331 331 331 328 340 339 340 346 348 348 323 325 332 338 339 342 332 343 339 331 323 317 316 311 315 311 310 309 311 308 311 308 308 311 307 313 302 307 308 303 289 287 275 274 270
332 331 332 338 332 333 337 342 345 340 319 331 333 345 337 328 327 329 337 327 317 315 315 310 313 314 311 313 316 311 319 314 311 308 308 303 303 308 313 306 292 292 286 279 274
329 329 330 335 333 337 340 341 339 329 319 328 335 331 327 327 325 324 321 324 321 316 314 310 317 313 312 315 314 316 314 312 311 308 300 303 298 303 310 310 309 297 289 281 279
331 331 331 336 331 341 343 338 327 322 331 328 329 325 319 317 316 319 321 321 318 315 313 315 311 313 313 310 314 312 312 309 306 305 302 312 301 298 310 313 316 308 295 284 280
334 331 334 332 335 337 338 326 315 319 314 320 320 318 315 320 317 320 318 315 316 314 313 313 312 318 318 314 314 311 311 307 305 306 307 311 302 308 317 319 316 318 307 293 284
333 335 333 337 338 337 322 309 313 314 316 314 314 311 314 319 316 315 312 312 320 319 313 313 311 319 317 317 315 313 306 312 304 303 303 303 305 309 313 313 314 315 310 297 290
330 327 328 338 340 331 313 305 310 316 314 312 309 309 310 311 309 311 309 314 313 317 319 314 308 312 317 316 311 308 316 310 309 305 302 303 304 303 312 312 311 310 306 303 296
329 323 331 340 335 321 307 308 309 312 312 309 306 305 305 307 302 305 304 311 312 314 315 314 307 309 313 307 307 307 304 305 306 304 304 304 304 317 317 314 307 301 303 298 294
329 320 337 338 317 314 307 308 316 312 314 310 308 304 300 303 303 299 301 305 316 314 310 313 309 304 306 310 312 305 304 299 302 305 301 304 299 317 315 314 306 299 301 293 292
324 319 329 326 312 309 308 309 311 310 309 309 308 307 309 306 305 303 305 311 310 310 308 313 307 305 307 310 312 305 301 296 296 303 293 301 302 322 319 317 310 304 301 294 292
324 320 322 319 314 311 310 307 307 314 312 312 310 308 305 303 300 302 304 308 310 308 310 311 301 297 297 300 308 303 301 295 290 296 300 288 297 301 307 305 303 302 297 290 292
320 316 317 313 314 311 310 309 306 307 309 307 305 301 302 300 301 299 301 303 305 304 304 304 299 296 294 298 299 297 296 293 286 285 294 297 297 301 302 298 299 296 294 290 291
314 316 316 309 310 307 306 304 305 305 304 306 303 305 304 297 299 300 302 305 304 305 301 304 299 302 298 301 297 296 297 294 287 288 288 291 293 301 299 301 304 299 293 292 296
321 318 311 307 307 305 303 304 305 308 307 305 305 304 303 302 301 303 305 305 302 300 298 301 300 301 297 306 305 297 300 296 296 295 294 293 296 305 305 308 299 295 298 298 303